DMSP 5D-2 F13 DEB, 42315

Orbit data source: Space-Track

DMSP 5D-2 F13 DEB, 42315 is space debris in SSO originally from a launch on Fri, 24 Mar 1995 UTC launched from the Air Force Western Test Range (AFWTR). Debris objects in space refer to the collection of defunct objects orbiting the Earth. Examples of debris include non-operational satellites, rocket bodies, and fragments generated from explosions, collisions, or faulty payload assembly.

Loading next visibility...
Identifier
42315, 1995-015JH
Orbit
SSO
Country
Flag of USUS
Related business
Manufacturer
Unknown
Mission
Spacecraft
Bus & Motor
Unknown
Mass
Unknown
Launch date (UTC)
1995-03-24 (31 years ago)
Launch vehicle
Unknown
Launch site
Air Force Western Test Range (AFWTR)
Object type
Payload
Rocket body
Debris
Shape & HBR
Unknown shape, 0.1 m
Radar Cross Section
Small (<0.1 m²)

Expand to show TLE details & history
Last TLE update: 5 days ago

TLE from 5 days ago
0 DMSP 5D-2 F13 DEB
1 42315U 95015JH  26249.38565717  .00003316  00000-0  79376-3 0  9998
2 42315  98.5523 310.6702 0020640 283.4958  76.3938 14.54117904579664
Epoch: 2026-09-06T09:15Z
TLE epoch observation values (Epoch: 2026-09-06T09:15:20.779Z)
Latitude
-0.00002°
Longitude
-173.64791°
Altitude
711.782 km
Speed
7.502 km/s
True Right ascension
20h 42m 40s
True Declination
0° 00' 00"
Sunlit
Object was in full shadow at epoch
Visualization orbit readout
Latitude
Unknown
Longitude
Unknown
Altitude
Unknown
Speed
Unknown
Apparent Right ascension
Unknown
Apparent Declination
Unknown
Sunlit
N/A
Visualization observer readout
Local Sidereal Time
00:44:08
Azimuth
Unknown
Elevation
Unknown
Doppler factor
Unknown
Orbital elements
Apogee altitude
723.965 km
Perigee altitude
694.708 km
Semi-major axis
7,087.473 km
Eccentricity
0.00206
Inclination
98.5523°
RAAN
310.6702°
Arg. of periapsis
283.4958°
True anomaly
76.62382°
Mean anomaly
76.3938°
Eccentric anomaly
76.5088°
Mean motion
3.63753 °/min
Orbital period
98.97 mins
BSTAR
0.00079376
Loading maneuver chart data...
Computing Atmospheric mass density...

Documentation

Showing up to 5 results
|